Weather History for Ogallala, NE

Change the Weather History Date:

Tuesday, June 3, 2014

  Actual Average Record
Temperature  
Mean Temperature 78 °F -  
Max Temperature 98 °F 76 °F 98 °F (2014)
Min Temperature 59 °F 50 °F 36 °F (1951)
Cooling Degree Days 13    
Growing Degree Days 28 (Base 50)    
Moisture  
Dew Point 56 °F    
Average Humidity 61    
Maximum Humidity 91    
Minimum Humidity 11    
Precipitation  
Precipitation 0.00 in - - ()
Sea Level Pressure  
Sea Level Pressure 29.81 in    
Wind  
Wind Speed 11 mph (ESE)    
Max Wind Speed 25 mph    
Max Gust Speed 34 mph    
Visibility 10 miles    
Events      
Averages and records for this station are not official NWS values.
T = Trace of Precipitation, MM = Missing Value Source: NWS Daily Summary

Daily Weather History Graph

Daily Weather History Graph

Search for Another Location

Airport:

Trip Planner

Search our weather history database for the weather conditions in past years. The results will help you decide how hot, cold, wet, or windy it might be!

Date:

Astronomy

Jun. 03, 2014 Rise Set
Actual Time 5:16 AM MDT 8:14 PM MDT
Civil Twilight 4:42 AM MDT 8:47 PM MDT
Nautical Twilight 4:00 AM MDT 9:30 PM MDT
Astronomical Twilight 3:11 AM MDT 10:19 PM MDT
Moon 10:43 AM MDT (6/3) No Moon Set
Length of Visible Light 16h 05m
Length of Day
14h 58m
Waxing Crescent, 30% of the Moon is Illuminated
Jun 3
Waxing Crescent
Jun 5
First Quarter
Jun 12
Full
Jun 19
Last Quarter
Jun 27
New

Hourly Weather History & Observations

Time (MDT) Temp. Heat Index Dew Point Humidity Pressure Visibility Wind Dir Wind Speed Gust Speed Precip Events Conditions
12:15 AM 64.6 °F - 55.2 °F 72% 30.01 in 10.0 mi East 5.8 mph - N/A   Mostly Cloudy
12:35 AM 66.2 °F - 55.2 °F 68% 30.01 in 10.0 mi ESE 8.1 mph - N/A   Overcast
12:55 AM 66.6 °F - 55.4 °F 67% 30.00 in 10.0 mi SE 8.1 mph - N/A   Overcast
1:15 AM 67.1 °F - 55.8 °F 67% 30.00 in 10.0 mi ESE 10.4 mph - N/A   Overcast
1:35 AM 67.1 °F - 56.3 °F 68% 29.99 in 10.0 mi SE 10.4 mph - N/A   Mostly Cloudy
1:55 AM 66.6 °F - 56.7 °F 70% 29.98 in 10.0 mi SE 9.2 mph - N/A   Mostly Cloudy
2:15 AM 66.2 °F - 57.2 °F 73% 29.96 in 10.0 mi ESE 10.4 mph - N/A   Scattered Clouds
2:35 AM 65.3 °F - 57.7 °F 76% 29.96 in 10.0 mi ESE 5.8 mph - N/A   Clear
2:55 AM 64.2 °F - 57.7 °F 79% 29.95 in 10.0 mi East 5.8 mph - N/A   Clear
3:15 AM 63.7 °F - 58.3 °F 83% 29.95 in 10.0 mi East 5.8 mph - N/A   Scattered Clouds
3:35 AM 63.7 °F - 58.6 °F 84% 29.94 in 10.0 mi East 5.8 mph - N/A   Clear
3:55 AM 63.1 °F - 58.8 °F 86% 29.94 in 10.0 mi East 6.9 mph - N/A   Clear
4:15 AM 62.6 °F - 58.6 °F 87% 29.93 in 10.0 mi East 6.9 mph - N/A   Clear
4:35 AM 62.2 °F - 59.0 °F 89% 29.93 in 10.0 mi East 6.9 mph - N/A   Clear
4:55 AM 62.2 °F - 59.2 °F 90% 29.92 in 10.0 mi East 6.9 mph - N/A   Clear
5:15 AM 62.6 °F - 59.4 °F 89% 29.91 in 10.0 mi East 6.9 mph - N/A   Clear
5:35 AM 62.4 °F - 59.5 °F 90% 29.91 in 10.0 mi East 9.2 mph - N/A   Clear
5:55 AM 62.2 °F - 59.7 °F 91% 29.91 in 7.0 mi East 6.9 mph - N/A   Clear
6:15 AM 62.6 °F - 60.1 °F 91% 29.90 in 7.0 mi East 6.9 mph - N/A   Mostly Cloudy
6:35 AM 64.6 °F - 61.5 °F 90% 29.89 in 7.0 mi ESE 8.1 mph - N/A   Scattered Clouds
6:55 AM 66.4 °F - 62.1 °F 86% 29.88 in 7.0 mi ESE 11.5 mph 16.1 mph N/A   Clear
7:15 AM 68.0 °F - 62.6 °F 83% 29.88 in 7.0 mi SSE 13.8 mph 19.6 mph N/A   Scattered Clouds
7:35 AM 69.8 °F - 63.0 °F 79% 29.87 in 10.0 mi SE 12.7 mph 19.6 mph N/A   Scattered Clouds
7:55 AM 71.6 °F - 63.1 °F 75% 29.87 in 10.0 mi SSE 11.5 mph 19.6 mph N/A   Clear
8:15 AM 73.0 °F - 63.5 °F 72% 29.87 in 10.0 mi SSE 16.1 mph 21.9 mph N/A   Scattered Clouds
8:35 AM 74.3 °F - 63.7 °F 69% 29.87 in 10.0 mi SSE 15.0 mph 19.6 mph N/A   Scattered Clouds
8:55 AM 75.9 °F - 63.3 °F 65% 29.86 in 10.0 mi SSE 13.8 mph 23.0 mph N/A   Scattered Clouds
9:15 AM 74.7 °F - 63.0 °F 67% 29.86 in 10.0 mi SSE 17.3 mph 25.3 mph N/A   Overcast
9:35 AM 75.4 °F - 62.8 °F 65% 29.85 in 10.0 mi SSE 16.1 mph 23.0 mph N/A   Overcast
9:55 AM 76.5 °F - 63.0 °F 63% 29.84 in 10.0 mi SE 16.1 mph 24.2 mph N/A   Overcast
10:15 AM 80.6 °F 81.8 °F 62.6 °F 54% 29.82 in 10.0 mi SSE 18.4 mph 29.9 mph N/A   Mostly Cloudy
10:35 AM 81.7 °F 82.7 °F 62.2 °F 52% 29.81 in 10.0 mi SSE 19.6 mph 29.9 mph N/A   Scattered Clouds
10:55 AM 82.9 °F 83.7 °F 62.1 °F 49% 29.80 in 10.0 mi South 19.6 mph 25.3 mph N/A   Scattered Clouds
11:15 AM 82.6 °F 83.2 °F 61.7 °F 49% 29.79 in 10.0 mi SSE 18.4 mph 25.3 mph N/A   Mostly Cloudy
11:35 AM 83.5 °F 84.1 °F 61.9 °F 48% 29.77 in 10.0 mi SSE 18.4 mph 28.8 mph N/A   Mostly Cloudy
11:55 AM 85.8 °F 86.3 °F 62.2 °F 45% 29.76 in 10.0 mi SSE 18.4 mph 26.5 mph N/A   Mostly Cloudy
12:15 PM 86.9 °F 87.8 °F 63.0 °F 45% 29.74 in 10.0 mi SSE 16.1 mph 21.9 mph N/A   Scattered Clouds
12:35 PM 88.0 °F 87.9 °F 61.2 °F 40% 29.73 in 10.0 mi South 16.1 mph 27.6 mph N/A   Scattered Clouds
12:55 PM 88.3 °F 87.8 °F 59.5 °F 38% 29.71 in 10.0 mi South 13.8 mph 26.5 mph N/A   Scattered Clouds
1:15 PM 89.6 °F 88.4 °F 58.1 °F 34% 29.70 in 10.0 mi SSW 17.3 mph 25.3 mph N/A   Scattered Clouds
1:35 PM 90.9 °F 90.0 °F 59.2 °F 34% 29.69 in 10.0 mi SSW 16.1 mph 24.2 mph N/A   Clear
1:55 PM 91.6 °F 90.1 °F 57.4 °F 31% 29.68 in 10.0 mi SSW 16.1 mph 25.3 mph N/A   Clear
2:15 PM 92.8 °F 91.4 °F 57.6 °F 30% 29.67 in 10.0 mi SSW 10.4 mph 21.9 mph N/A   Clear
2:35 PM 94.3 °F - 52.5 °F 24% 29.67 in 10.0 mi SW 15.0 mph 23.0 mph N/A   Clear
2:55 PM 95.2 °F 92.7 °F 53.1 °F 24% 29.66 in 10.0 mi SSW 11.5 mph 16.1 mph N/A   Clear
3:15 PM 95.9 °F - 51.6 °F 22% 29.66 in 10.0 mi SW 13.8 mph 19.6 mph N/A   Clear
3:35 PM 96.1 °F - 50.7 °F 21% 29.65 in 10.0 mi SSW 12.7 mph 23.0 mph N/A   Clear
3:55 PM 97.7 °F - 42.3 °F 15% 29.64 in 10.0 mi SW 13.8 mph 21.9 mph N/A   Clear
4:15 PM 97.2 °F - 34.0 °F 11% 29.64 in 10.0 mi West 13.8 mph 19.6 mph N/A   Clear
4:35 PM 97.3 °F - 35.4 °F 12% 29.63 in 10.0 mi West 13.8 mph 19.6 mph N/A   Clear
4:55 PM 95.5 °F - 36.0 °F 12% 29.63 in 10.0 mi West 10.4 mph 18.4 mph N/A   Clear
5:15 PM 96.3 °F - 37.8 °F 13% 29.62 in 10.0 mi West 10.4 mph - N/A   Clear
5:35 PM 95.0 °F - 36.7 °F 13% 29.61 in 10.0 mi West 9.2 mph - N/A   Clear
5:55 PM 96.1 °F - 32.9 °F 11% 29.60 in 10.0 mi WSW 10.4 mph - N/A   Clear
6:15 PM 95.5 °F - 33.6 °F 11% 29.61 in 10.0 mi West 10.4 mph - N/A   Clear
6:35 PM 78.3 °F - 58.6 °F 51% 29.65 in 10.0 mi NE 21.9 mph 31.1 mph N/A   Clear
6:55 PM 75.2 °F - 59.5 °F 58% 29.68 in 10.0 mi NE 17.3 mph 26.5 mph N/A   Clear
7:15 PM 74.5 °F - 59.9 °F 60% 29.73 in 10.0 mi North 25.3 mph 34.5 mph N/A   Clear
7:35 PM 72.1 °F - 58.5 °F 62% 29.74 in 10.0 mi North 21.9 mph 31.1 mph N/A   Clear
7:55 PM 67.8 °F - 57.9 °F 71% 29.75 in 10.0 mi NNE 15.0 mph 18.4 mph N/A   Clear
8:15 PM 65.7 °F - 57.4 °F 75% 29.76 in 10.0 mi NE 11.5 mph 19.6 mph N/A   Clear
8:35 PM 62.2 °F - 57.2 °F 84% 29.76 in 10.0 mi NNE 12.7 mph 19.6 mph N/A   Clear
8:55 PM 61.3 °F - 57.2 °F 86% 29.78 in 10.0 mi NE 9.2 mph - N/A   Clear
9:15 PM 60.3 °F - 56.8 °F 88% 29.79 in 10.0 mi NNE 8.1 mph - N/A   Scattered Clouds
9:35 PM 61.0 °F - 56.1 °F 84% 29.81 in 10.0 mi NE 17.3 mph 20.7 mph N/A   Mostly Cloudy
9:55 PM 60.4 °F - 54.7 °F 81% 29.82 in 10.0 mi NE 15.0 mph 25.3 mph N/A   Overcast
10:15 PM 60.8 °F - 55.0 °F 81% 29.82 in 10.0 mi NE 18.4 mph - N/A   Overcast
10:35 PM 60.3 °F - 55.8 °F 85% 29.82 in 10.0 mi ENE 16.1 mph 23.0 mph N/A   Overcast
10:55 PM 60.3 °F - 55.9 °F 86% 29.83 in 10.0 mi ENE 13.8 mph 21.9 mph N/A   Overcast
11:15 PM 59.9 °F - 55.6 °F 86% 29.84 in 10.0 mi ENE 16.1 mph 23.0 mph N/A   Overcast
11:35 PM 59.9 °F - 55.8 °F 86% 29.85 in 10.0 mi ENE 11.5 mph - N/A   Overcast
11:55 PM 59.5 °F - 55.9 °F 88% 29.85 in 10.0 mi ENE 12.7 mph 23.0 mph N/A   Overcast